Flag for Brazil Weather past 2 weeks in Fortaleza, Ceará, Brazil

Now
79 °F

Passing clouds.


Feels Like: 81 °F
Forecast: 73 / 85 °F
Wind: 13 mph from East

Location: Fortaleza Aeropor-To

Current Time: Jul 30, 2015 at 10:39:12 PM

Latest Report: Jul 30, 2015 at 10:00 PM


Visibility: N/A

Pressure: 29.98 "Hg

Humidity: 74%

Dew point: 70 °F

Location of FortalezaLocation

Historic Weather in Fortaleza — Graph

°F

Fortaleza temperature yesterday

Maximum temperature yesterday: 84 °F (at 12:00 PM)
Minimum temperature yesterday: 73 °F (at 5:00 AM)
Average temperature yesterday: 79 °F

Past Weeks' High & Low Weather Summary

 TemperatureHumidityPressure
High86 °F (Jul 20, 1:00 PM)100% (Jul 17, 3:00 AM)30.04 "Hg (Jul 17, 3:00 AM)
Low70 °F (Jul 27, 6:00 AM)48% (Jul 25, 12:00 PM)29.86 "Hg (Jul 16, 2:00 PM)
Average79 °F71%29.96 "Hg
* Reported Jul 15 9:00 PM — Jul 30 9:00 PM, Fortaleza, Weather by CustomWeather, © 2015

Note: Actual official high and low records may vary slightly from our data, if they occured in-between our weather recording intervals... More about our weather records

Advertising

Fortaleza weather history for previous 24 hours

 ConditionsComfort  
Time TempWeatherWind HumidityBarometerVisibility
9:00 PM
Thu, Jul 30
79 °FPassing clouds.12 mph74%29.98 "HgN/A
8:00 PM79 °FClear.9 mph74%29.98 "Hg10 mi
7:00 PM79 °FClear.9 mph70%29.95 "Hg10 mi
6:00 PM81 °FClear.13 mph66%29.92 "Hg10 mi
5:00 PM82 °FSunny.17 mph58%29.92 "Hg10 mi
4:00 PM82 °FSunny.20 mph58%29.92 "Hg10 mi
3:00 PM84 °FSunny.17 mph55%29.92 "Hg10 mi
2:00 PM84 °FSunny.17 mph51%29.92 "Hg10 mi
1:00 PM84 °FPassing clouds.15 mph55%29.95 "HgN/A
12:00 PM86 °FScattered clouds.17 mph52%29.95 "HgN/A
11:00 AM82 °FPartly sunny.18 mph55%29.98 "HgN/A
10:00 AM82 °FPartly sunny.18 mph55%30.01 "HgN/A
9:00 AM81 °FPartly sunny.18 mph62%30.01 "HgN/A
8:00 AM79 °FPassing clouds.16 mph65%30.01 "HgN/A
7:00 AM75 °FPassing clouds.10 mph78%29.98 "HgN/A
6:00 AM73 °FPassing clouds.8 mph83%29.95 "HgN/A
5:00 AM75 °FPassing clouds.7 mph78%29.95 "HgN/A
4:00 AM75 °FPassing clouds.9 mph78%29.95 "HgN/A
3:00 AM75 °FPassing clouds.8 mph78%29.95 "HgN/A
2:00 AM75 °FPassing clouds.9 mph78%29.98 "HgN/A
1:00 AM77 °FPassing clouds.10 mph74%29.98 "HgN/A
12:00 AM77 °FPassing clouds.10 mph74%30.01 "HgN/A
11:00 PM
Wed, Jul 29
79 °FPassing clouds.16 mph70%30.01 "HgN/A
10:00 PM79 °FPassing clouds.14 mph74%30.01 "HgN/A
Weather by CustomWeather, © 2015

See weather overviewHow to use our weather pages